Retour au catalogue

TJS-1

ActifCommunicationsGEO
NORAD 40892·PAYLOAD·🇨🇳 China

Lancé Sep 12, 2015 depuis Xichang Satellite Launch Center

Loading…

TLE

FraisSource: Space-Track

Époque: Sep 14, 2026, 15:49 UTC

1 40892U 15046A   26257.65950744 -.00000163  00000-0  00000-0 0  9992
2 40892   0.5482  84.0337 0003409  66.9684 235.0670  1.00273497 40464

Suivez TJS-1 en temps réel avec AllMySat

Download on the App Store